Regional Weather Roundup
Issued by NWS

Home | Current Version | Previous Version | Graphics & Text | Print | Product List | Glossary On
Versions: 1 2 3 4 5 6 7 8 9 10 11 12 13 14 15 16 17 18 19 20 21 22 23 24 25 26 27
000
ASUS45 KCYS 221310
RWRWY

WYOMING REGIONAL WEATHER ROUNDUP
NATIONAL WEATHER SERVICE CHEYENNE WY
700 AM MDT MON MAY 22 2017

NOTE:  "FAIR" INDICATES FEW OR NO CLOUDS BELOW 12,000 FEET
WITH NO SIGNIFICANT WEATHER AND/OR OBSTRUCTIONS TO VISIBILITY.

WYZ001-221400-
YELLOWSTONE NATIONAL PARK

CITY           SKY/WX    TMP DP  RH WIND       PRES   REMARKS
LK YELLOWSTONE   N/A     30  28  92 CALM      30.35R
W YELLOWSTONE  NOT AVBL

$$
WYZ002>013-054>058-071-098>099-221400-
NORTHERN WYOMING

CITY           SKY/WX    TMP DP  RH WIND       PRES   REMARKS
JACKSON        MOSUNNY   32  28  86 N5        30.32S WCI  27
CODY           CLOUDY    53  33  46 N5        30.20R
GREYBULL       PTSUNNY   49  36  61 N5        30.14R
WORLAND        FAIR      46  40  79 S5        30.14F
SHERIDAN       LGT RAIN  50  42  74 W12       30.12R
BUFFALO        LGT RAIN  46  41  82 CALM      30.14R
GILLETTE       FAIR      49  43  80 W9        30.08S
HULETT         FAIR      45  41  87 SW6       30.08R
NEWCASTLE      FAIR      45  41  87 N7        30.08F

$$
WYZ014>020-022>026-101>103-221400-
CENTRAL WYOMING

CITY           SKY/WX    TMP DP  RH WIND       PRES   REMARKS
BIG PINEY      FAIR      32  30  92 N5        30.32R WCI  27
PINEDALE       FAIR      32  32 100 W5        30.32S WCI  27
DUBOIS         FAIR      36  27  69 NW12      30.26S WCI  27
LANDER         FAIR      40  33  76 S3        30.20S
RIVERTON       FAIR      43  37  79 W9        30.20S
CASPER         CLOUDY    44  36  73 SW12      30.16S
DOUGLAS        PTSUNNY   40  36  86 N6        30.14S

$$
WYZ021-027>030-104>119-221400-
SOUTHERN WYOMING

CITY           SKY/WX    TMP DP  RH WIND       PRES   REMARKS
EVANSTON       FAIR      38  37  97 S6        30.32R WCI  33
KEMMERER         N/A     37  34  87 NW9       30.32R WCI  31
FORT BRIDGER   FAIR      43  39  87 W10       30.33S
ROCK SPRINGS   FAIR      38  35  89 SW7       30.29S WCI  33
DIXON            N/A     32  29  92 CALM      30.32S
RAWLINS        FAIR      38  34  85 SW6       30.26S WCI  33
SARATOGA       FAIR      34  34 100 S10       30.28S WCI  26
LARAMIE        FAIR      31  30  96 S7        30.23S WCI  24
CHEYENNE       FAIR      41  33  73 W10       30.18S
TORRINGTON     FAIR      42  39  89 W3        30.10S
PINE BLUFFS    FAIR      41  36  81 MISG      30.16S

$$




USA.gov is the U.S. government's official web portal to all federal, state and local government web resources and services.